Theta_e
350 351 355 358 357 358 358 357 357 357 357 357 357 356 356 356 356 356 355 355 355 354 354 354 354 354 353 353 353 352 352 352 351 351 351 350 350 349 349 349 349 349 350 351 351 350 349 350 350 351 350 350 351 350 350 349 348 348 346 345 345 347 346 345 345 345 345 345 345 346 346 345 344 344 343 342 341 341 339 339 339 336 335 336 339
349 353 355 358 357 357 358 357 357 357 357 357 356 356 356 355 356 355 355 355 355 354 354 354 354 354 354 353 352 352 351 352 351 352 352 350 350 350 350 349 349 349 350 350 350 350 350 349 348 348 348 349 349 350 349 349 347 346 345 346 345 346 346 346 346 347 347 347 347 346 344 344 344 343 342 342 341 340 340 339 338 335 333 338 338
352 353 356 357 357 357 357 357 357 357 357 356 357 356 355 355 356 355 355 355 355 354 354 354 354 354 354 353 352 352 351 352 351 351 352 351 350 350 350 349 349 350 350 350 350 349 349 348 347 347 347 348 348 349 349 348 347 346 346 345 345 345 346 346 346 345 345 345 344 345 344 343 341 340 340 341 340 340 338 338 338 338 334 338 337
350 352 355 356 357 357 357 357 356 356 356 356 356 356 355 355 355 355 355 355 355 355 354 354 354 354 354 354 353 352 352 351 351 351 351 351 349 350 349 349 349 350 350 349 349 348 348 347 346 346 346 347 347 348 348 348 347 345 346 345 345 344 344 344 344 344 344 343 343 341 339 333 337 340 341 341 341 340 339 338 338 338 338 338 338
349 352 354 354 356 357 356 357 356 356 356 356 355 355 355 355 355 355 355 355 355 355 354 354 354 354 354 353 353 352 352 352 352 351 351 350 349 349 348 349 349 349 349 349 348 348 347 346 346 345 345 346 345 346 347 347 346 346 344 344 344 344 344 343 343 343 343 343 341 339 332 333 334 340 340 340 340 339 339 339 338 338 338 338 337
349 351 353 354 355 356 356 356 356 356 355 356 356 355 354 354 354 354 354 354 355 354 354 354 354 354 354 353 353 353 353 352 352 351 350 350 349 349 348 348 348 349 349 349 348 348 348 346 345 345 345 344 345 345 347 346 346 345 343 343 343 343 343 343 343 343 342 342 340 332 331 332 333 337 340 341 340 339 339 338 338 338 338 338 337
349 351 352 351 353 355 355 355 356 355 355 355 355 355 355 354 353 353 354 355 355 355 354 354 354 354 353 353 353 353 353 351 351 350 351 351 350 349 348 347 347 347 348 348 348 348 347 346 345 345 345 345 345 345 346 346 347 344 343 342 341 341 342 343 343 342 341 337 331 330 331 333 334 335 340 340 339 338 338 337 338 338 338 337 336
347 350 350 351 353 354 354 354 355 355 355 355 355 355 355 354 354 353 354 354 355 354 354 354 354 354 353 353 353 352 352 352 352 350 351 349 350 350 349 348 346 346 346 347 348 348 347 346 345 345 345 345 345 346 345 346 346 346 346 346 345 343 342 342 342 342 340 333 332 333 333 332 331 332 339 340 340 340 340 339 338 337 337 337 336
346 349 350 351 351 355 354 353 354 354 354 355 355 354 354 355 354 354 354 354 354 354 354 354 354 354 353 352 352 351 351 351 352 352 351 351 352 350 349 350 349 348 348 347 347 347 347 346 345 345 345 345 345 345 345 345 345 345 344 344 343 343 341 341 341 341 337 334 334 332 332 332 333 333 339 341 340 340 339 338 338 337 337 336 335
347 349 350 350 349 354 353 353 352 354 354 355 354 354 353 354 354 354 354 354 355 354 354 354 354 354 353 352 351 351 349 350 352 352 352 352 352 351 351 350 348 348 347 347 348 347 347 346 345 344 345 344 345 345 344 344 344 344 343 342 341 340 343 340 340 338 333 333 333 333 336 341 333 334 338 339 338 337 335 336 337 335 334 336 335
347 348 350 351 352 352 353 353 353 353 353 354 354 354 353 352 353 354 354 354 354 354 354 354 354 353 353 353 352 352 351 351 351 351 352 351 351 351 351 349 347 347 346 347 348 347 347 347 346 346 346 346 344 343 344 344 344 342 341 341 340 342 343 341 337 331 331 331 332 334 340 341 331 331 338 339 338 337 336 335 335 335 335 334 334
345 348 349 348 351 352 352 352 353 353 354 354 354 353 353 352 352 353 354 354 354 354 354 353 353 353 353 352 352 351 351 351 351 351 352 351 351 351 352 350 349 348 346 347 347 347 347 348 348 347 346 345 344 343 342 342 342 341 341 341 342 344 343 341 332 330 331 332 334 333 334 333 333 336 340 340 338 337 336 336 335 335 335 334 334
345 347 349 350 351 352 352 352 353 354 354 354 354 354 353 352 352 350 351 353 353 353 353 353 353 352 352 352 352 351 351 351 351 352 352 351 351 351 349 349 348 347 347 348 348 348 347 348 348 347 346 345 345 344 343 342 341 341 341 342 343 343 341 339 331 330 330 331 333 332 330 329 333 339 339 338 337 337 336 336 336 335 334 334 334
344 346 348 349 349 352 351 352 351 353 353 353 353 352 352 351 350 348 348 347 350 351 352 352 352 352 352 352 352 352 351 352 351 351 348 351 350 351 350 349 348 346 346 347 347 347 347 347 348 347 346 345 345 344 343 342 341 341 341 341 342 342 340 338 336 330 332 331 331 330 328 331 333 339 338 338 338 337 336 335 335 334 334 334 334
343 345 347 346 347 349 353 351 351 351 351 351 351 351 350 350 349 345 346 348 348 349 351 352 352 352 352 352 352 351 352 351 351 347 349 350 348 350 349 348 347 346 346 345 345 346 346 346 346 346 345 345 344 343 342 341 341 341 340 340 341 341 339 332 332 331 332 333 332 332 329 330 340 340 338 338 336 336 336 334 333 333 334 333 333
345 345 345 344 345 346 348 351 351 350 350 351 351 350 350 350 350 347 347 347 348 349 351 352 352 352 352 351 351 351 351 351 350 349 350 348 350 348 349 348 347 347 346 346 345 345 345 345 345 345 344 344 343 342 342 341 340 340 340 340 340 342 340 336 330 330 330 331 331 332 330 333 340 339 337 338 337 335 334 334 333 332 332 332 332
344 344 342 343 344 344 347 348 350 352 350 350 350 350 349 349 349 348 346 346 348 350 351 351 351 351 351 350 350 351 351 350 349 349 350 350 348 348 349 348 348 348 347 346 345 345 345 345 345 345 344 343 343 342 342 341 340 340 340 340 341 341 340 337 331 330 330 333 333 332 330 332 338 338 337 336 336 334 333 333 333 332 332 332 332
343 342 341 342 342 344 343 344 346 347 349 350 349 349 348 348 348 349 347 345 348 349 350 350 351 350 350 350 350 350 350 349 349 349 349 348 348 348 348 348 348 348 347 346 345 345 345 345 345 344 344 343 342 341 340 340 340 341 340 341 340 339 340 337 330 331 331 336 332 334 333 339 339 337 335 336 335 334 334 333 332 332 331 331 331
341 342 341 341 342 342 343 343 344 345 346 347 348 348 348 348 348 349 349 347 344 347 350 350 350 350 350 350 350 348 350 350 349 348 348 347 348 349 348 348 348 347 346 346 345 344 344 345 345 344 344 343 342 341 341 341 341 341 340 340 338 339 339 335 330 330 333 332 332 332 332 339 338 336 337 336 334 333 333 332 331 331 331 331 331
339 340 339 339 341 340 339 339 341 343 344 345 346 347 348 348 349 349 349 347 348 349 350 350 350 350 350 349 349 348 348 348 348 347 346 347 346 346 347 347 347 347 346 345 345 344 345 345 344 343 343 342 341 341 341 341 341 340 340 338 337 338 332 328 330 330 330 331 334 331 339 338 337 337 338 336 334 333 333 332 332 332 331 331 330
338 337 336 337 337 337 336 335 336 339 342 343 344 345 347 348 348 348 348 347 347 347 348 349 350 350 349 348 344 343 342 343 343 343 347 345 345 345 346 347 346 346 346 345 345 344 344 344 344 342 342 341 341 341 340 341 340 341 340 337 336 328 329 328 329 331 329 333 335 332 340 338 338 338 337 335 334 333 332 332 332 331 331 330 330
335 333 333 336 335 335 336 335 335 336 338 341 343 345 346 346 343 344 344 344 345 345 344 342 347 344 348 346 343 345 339 339 342 346 342 344 345 345 346 346 345 345 345 344 344 342 343 343 342 342 342 341 340 332 333 334 339 340 339 338 328 326 328 328 328 329 329 329 333 334 340 338 338 338 337 335 334 333 332 332 332 330 331 330 330
332 333 332 335 334 334 335 337 336 335 336 337 341 343 343 343 343 343 344 346 345 345 341 343 340 340 343 343 342 340 338 341 341 342 341 345 345 346 346 346 346 346 345 344 344 343 342 343 342 341 341 340 331 327 327 324 325 336 334 329 325 325 327 328 328 329 330 329 329 338 339 339 338 338 337 336 335 333 332 332 332 331 330 329 328
329 331 331 333 333 333 335 337 336 335 335 334 340 341 342 342 343 343 341 341 342 343 342 340 338 340 341 339 338 338 338 338 344 346 345 342 342 345 346 346 346 346 345 344 343 343 342 342 342 341 341 336 327 326 325 322 324 325 325 326 325 324 326 326 327 328 328 333 330 339 341 339 339 338 337 336 335 333 332 332 331 331 330 329 329
327 328 331 332 332 333 334 334 336 335 335 336 341 340 340 340 341 343 342 342 342 341 338 339 338 339 342 338 337 337 335 335 336 337 336 337 337 337 339 341 340 340 343 337 338 339 338 335 335 336 332 330 327 325 327 325 324 324 324 325 325 323 326 327 326 327 328 329 330 340 341 341 339 338 337 336 335 335 333 332 331 331 330 329 328
320 325 327 328 330 335 335 334 335 335 335 334 337 341 340 337 337 339 339 339 340 338 335 335 338 339 337 336 337 334 334 336 335 334 335 336 338 339 338 338 336 337 339 336 336 335 334 333 334 335 333 331 328 327 326 328 323 323 323 322 323 323 326 325 325 326 328 328 332 340 340 341 339 338 338 336 335 335 334 332 331 331 330 329 330
319 319 316 321 325 331 334 334 333 332 333 335 335 335 333 331 334 335 336 334 333 333 333 333 336 336 337 338 335 334 334 332 333 333 332 334 338 340 340 340 338 336 336 336 336 335 333 331 330 331 327 328 329 328 326 326 325 325 323 324 324 324 325 325 325 325 327 328 332 340 339 341 340 339 338 337 335 335 334 332 332 332 330 329 329
313 311 314 317 321 321 329 334 332 333 331 335 333 332 331 334 337 342 335 340 334 329 329 332 334 335 337 337 338 336 335 334 333 333 333 333 336 340 340 340 339 338 335 332 334 333 331 328 327 324 326 327 328 327 326 327 325 325 326 324 324 323 324 324 325 325 326 328 330 338 339 340 340 340 338 337 336 335 335 334 333 332 329 329 328
310 309 310 313 313 317 322 329 332 332 331 333 332 331 333 334 335 334 335 342 330 330 331 332 333 334 336 338 339 336 336 335 334 333 333 334 335 338 339 339 339 338 334 331 331 332 330 328 327 326 324 325 324 325 326 326 325 325 325 324 325 324 324 324 324 325 326 327 328 334 340 339 339 339 339 337 336 336 336 335 334 332 330 329 329
308 308 311 311 312 314 320 327 331 332 331 331 331 331 330 332 333 334 335 338 330 331 330 330 330 333 333 335 337 337 337 336 335 333 332 333 334 336 337 337 337 336 334 332 330 330 330 328 326 325 326 324 324 325 326 325 326 326 325 324 324 326 325 324 324 325 326 327 328 331 339 338 337 337 338 338 337 337 336 336 334 333 331 330 329
308 309 310 311 316 315 318 324 329 332 328 329 328 329 328 329 331 332 333 332 333 334 331 329 330 331 332 332 334 337 337 336 335 334 332 332 333 333 334 334 334 334 335 333 331 330 329 329 327 325 324 324 324 324 325 324 324 326 327 327 326 324 325 325 325 326 326 327 328 329 334 339 337 335 336 336 338 337 337 336 336 334 333 332 330
309 309 309 310 311 313 316 319 322 325 327 327 330 328 326 328 328 327 328 330 332 330 330 329 333 330 332 331 332 335 337 334 334 333 332 332 333 333 332 332 333 333 335 334 333 332 330 329 328 327 326 324 324 324 324 324 324 325 327 328 327 326 324 324 325 325 326 327 327 328 330 334 337 335 335 335 336 338 337 337 336 335 335 333 332
307 309 310 311 310 311 313 313 316 319 323 324 325 323 323 326 325 324 325 330 327 326 328 330 329 329 329 330 333 334 333 333 334 335 334 331 332 332 332 332 333 333 334 335 335 333 333 331 331 331 329 326 325 326 324 324 324 325 326 328 327 327 325 325 324 325 325 326 327 328 328 330 332 335 334 336 335 336 338 337 336 336 335 334 334
309 308 310 310 313 314 315 314 314 316 318 320 321 320 319 319 321 321 327 323 322 324 327 325 329 329 329 330 333 335 332 330 333 334 333 330 329 331 332 332 332 332 332 333 333 332 332 332 331 330 332 328 326 327 323 322 323 325 326 328 327 326 325 325 324 325 325 326 327 327 327 328 328 330 331 337 336 334 335 338 337 336 336 334 334
311 309 310 311 313 313 316 316 318 317 319 319 319 317 316 318 314 314 318 319 319 321 321 320 321 325 330 332 332 333 333 331 330 331 330 330 330 331 333 333 333 332 331 332 332 331 331 332 331 330 328 327 326 327 324 322 322 324 326 326 327 326 325 325 325 325 325 326 326 327 327 327 327 328 329 328 335 335 334 336 339 337 337 335 334
310 309 311 311 311 313 314 313 313 314 315 316 313 314 312 311 314 321 314 318 317 317 317 318 320 322 326 328 333 333 332 330 330 329 329 329 332 333 334 333 333 332 331 332 332 331 330 331 331 331 328 328 327 328 325 323 322 323 325 325 326 326 324 324 324 325 326 326 326 326 326 326 326 326 330 327 327 332 334 334 335 337 337 336 335
310 310 310 310 311 313 315 311 311 313 313 312 310 310 311 310 310 311 311 312 312 314 315 317 322 323 320 321 326 331 330 330 332 331 328 328 330 331 329 331 332 332 333 332 331 330 331 332 330 331 330 328 328 328 326 323 322 322 324 325 325 326 325 325 324 325 327 326 325 326 325 326 327 332 327 326 326 327 332 334 334 335 335 336 336
311 311 311 311 310 311 310 311 311 312 311 311 311 310 312 313 312 315 320 314 313 315 318 321 321 319 320 321 323 326 329 333 334 334 331 330 330 329 330 330 333 331 331 332 332 331 330 331 330 330 330 330 329 327 326 325 324 323 322 323 325 325 325 325 325 326 326 326 326 325 326 326 326 326 327 326 326 325 326 330 334 334 334 333 335
310 310 310 309 309 308 311 314 311 310 310 311 313 312 312 312 311 312 313 313 314 315 317 318 317 319 320 319 321 324 325 325 329 333 332 332 330 329 329 331 331 329 330 331 332 332 331 330 329 329 331 332 330 328 327 327 328 325 323 322 323 324 325 326 325 325 324 326 327 327 327 325 325 325 326 326 325 325 325 325 327 330 332 334 334
310 310 309 308 308 308 309 311 309 309 310 311 313 311 312 311 310 310 313 313 312 317 314 314 314 318 320 318 318 320 322 322 321 323 326 328 328 328 326 327 326 329 328 329 329 332 331 328 327 328 329 330 331 331 329 328 327 325 322 323 322 323 323 324 324 324 324 324 326 327 326 326 325 325 326 326 326 326 325 325 326 327 329 332 333
308 308 307 307 307 309 310 309 309 309 312 311 310 310 308 307 307 307 309 309 312 312 312 312 313 314 315 317 318 318 318 320 319 319 321 326 323 325 324 322 324 327 327 327 329 330 332 331 331 329 328 326 327 331 331 329 326 323 322 322 322 322 322 322 322 323 324 324 323 325 326 326 326 325 326 326 325 325 325 325 325 325 326 328 331
307 307 306 306 307 308 309 309 309 310 311 311 312 310 306 308 307 308 306 309 310 309 309 310 312 315 314 314 315 314 314 315 319 318 318 317 318 320 320 323 324 324 326 328 329 330 330 329 328 326 328 327 326 328 329 327 322 320 318 318 318 319 320 321 320 321 323 324 324 323 324 326 326 327 327 326 325 325 325 325 325 325 325 326 327
308 307 306 306 307 308 308 309 309 311 310 312 311 310 307 308 307 305 310 308 306 308 307 312 315 311 311 312 312 310 311 311 314 319 317 316 316 317 319 320 322 324 322 322 322 322 325 327 326 325 323 326 326 329 328 327 322 321 320 318 314 315 317 316 319 320 321 321 322 323 324 324 326 328 328 326 325 325 325 325 325 325 325 325 326
308 306 306 305 307 309 308 309 310 311 311 313 315 309 309 307 308 308 307 306 306 313 308 308 309 310 311 310 311 310 311 311 313 316 316 315 314 315 314 316 318 320 319 319 320 321 322 323 327 327 325 322 323 323 327 326 325 321 317 318 316 311 311 313 315 317 319 320 320 322 324 324 324 325 326 326 326 325 325 324 324 325 325 325 325
308 307 306 306 308 308 309 310 311 311 311 315 312 310 310 309 311 310 309 308 308 306 307 309 308 313 311 309 310 310 311 311 312 314 316 312 312 313 315 315 316 316 317 316 316 318 319 322 324 326 327 324 322 323 325 326 326 326 321 316 312 311 311 312 313 314 317 318 319 320 321 323 324 323 323 325 327 326 326 325 324 324 324 325 325
307 308 307 308 308 308 309 310 310 311 311 311 310 310 309 309 309 308 305 304 305 304 304 306 307 308 307 307 309 309 310 310 310 312 316 315 313 313 313 315 314 316 316 314 315 315 316 318 321 323 323 324 325 325 324 325 326 326 325 324 319 314 314 317 314 310 315 318 319 320 320 321 323 323 323 322 323 325 325 326 325 324 324 324 325
308 308 308 308 308 309 310 311 311 311 311 310 310 311 307 309 310 308 307 306 306 305 302 303 307 306 307 308 307 308 309 310 310 310 313 313 312 312 313 313 315 315 315 314 314 314 315 317 318 318 319 322 324 323 323 323 325 325 325 325 324 323 323 318 313 312 310 312 316 319 321 321 320 322 322 323 322 322 322 325 325 325 324 324 324
307 307 308 309 309 309 310 311 311 313 311 310 309 309 308 308 307 307 308 306 307 307 304 304 304 309 305 307 308 308 308 309 309 309 311 313 313 311 311 312 313 315 315 314 313 313 314 315 316 316 316 318 320 320 320 322 319 321 325 323 322 324 324 324 322 318 315 313 315 317 319 319 320 320 321 322 322 322 321 322 324 325 325 325 325
307 308 308 309 310 309 311 311 311 311 310 310 309 308 310 309 308 308 308 308 307 306 306 309 306 308 304 307 308 308 306 308 310 310 310 313 314 310 309 310 311 313 315 312 312 312 312 312 312 313 313 314 316 318 318 318 319 318 320 322 324 324 325 325 324 323 317 314 315 315 317 318 318 319 320 321 321 321 322 322 323 324 325 325 325
308 309 308 309 310 309 310 311 310 310 310 310 309 307 309 310 308 308 308 307 307 305 306 306 305 305 305 305 306 307 307 308 307 308 309 310 310 310 309 309 310 312 312 309 309 309 310 310 310 311 311 311 313 314 315 315 316 318 318 318 318 319 321 323 323 322 321 319 315 316 317 316 316 316 318 320 321 321 321 321 322 323 324 324 325
306 307 307 309 310 310 310 311 310 310 310 310 308 307 308 309 309 309 308 307 305 305 305 304 304 304 305 304 304 305 307 307 307 308 308 308 309 311 309 309 310 313 310 308 307 308 308 308 308 308 309 309 310 311 312 313 313 313 314 315 315 317 316 316 318 321 320 318 317 317 318 319 318 318 321 321 321 323 323 322 320 321 323 323 325
Wind_Speed
6 6 5 6 8 9 10 11 10 10 11 13 13 13 12 14 14 13 14 14 15 15 14 14 15 15 14 14 14 14 14 14 15 15 15 16 16 16 16 16 15 15 16 16 16 15 14 14 14 14 15 15 17 17 17 17 16 15 16 15 15 15 15 17 17 17 16 17 16 16 16 16 16 16 16 16 16 16 16 15 12 8 6 11 15
9 6 5 7 8 9 10 10 10 10 12 13 14 13 12 13 13 13 13 13 14 14 14 14 14 14 13 14 14 13 13 13 13 13 14 15 16 16 15 15 15 15 16 16 16 15 15 14 14 14 15 15 16 18 18 18 16 15 15 16 15 14 14 16 18 17 15 16 16 17 17 16 15 16 16 15 16 16 15 15 15 7 4 13 15
7 7 5 7 9 9 9 10 10 10 11 13 13 13 12 12 12 13 12 13 13 13 13 13 14 14 12 13 13 13 13 12 11 11 12 13 15 15 15 15 15 15 16 16 16 15 15 15 14 14 15 15 16 18 18 18 17 17 17 17 16 16 15 15 16 17 17 16 16 16 16 15 14 14 15 15 15 15 14 14 13 12 8 14 13
9 6 6 7 10 9 10 10 10 11 11 12 13 13 12 12 12 11 11 11 12 12 12 12 12 13 12 11 11 12 12 12 11 11 10 11 14 15 15 15 15 15 15 16 16 15 15 15 14 14 14 15 15 16 17 18 18 17 17 17 15 14 14 14 16 17 17 16 14 10 4 5 9 14 15 15 16 15 14 14 14 13 14 13 14
8 7 6 5 7 7 9 10 10 11 11 12 13 14 13 12 11 11 11 11 11 12 12 11 11 12 13 13 13 12 11 11 11 11 10 11 12 14 14 15 15 15 15 15 15 14 14 15 15 14 14 15 15 16 18 18 17 15 15 16 15 13 14 14 16 18 17 15 13 7 4 4 5 13 13 15 15 15 14 14 14 14 14 14 13
8 7 5 5 6 8 9 10 10 11 11 11 12 13 13 13 12 12 11 11 11 12 12 12 11 10 11 12 13 13 12 11 10 10 10 9 10 12 14 14 15 15 15 14 14 14 14 15 15 15 15 14 15 17 17 16 14 15 15 15 13 13 13 14 15 16 16 14 10 4 5 4 3 7 14 13 14 14 14 14 13 13 13 14 13
8 5 6 4 4 6 9 11 11 11 10 10 11 13 13 13 13 12 11 11 11 11 12 12 11 11 11 11 11 12 13 13 10 10 9 8 9 10 13 14 14 14 14 14 14 13 13 14 15 15 15 15 16 16 15 15 13 14 15 14 12 11 12 12 13 15 14 7 5 3 3 3 3 3 13 12 12 13 13 13 12 12 12 12 12
5 5 6 5 4 7 9 10 11 10 11 11 12 14 13 12 12 12 11 11 12 12 12 12 12 12 11 11 10 11 12 13 13 12 9 7 8 9 10 12 13 13 14 13 12 12 13 14 14 15 15 15 15 15 15 14 12 12 13 12 11 10 10 11 12 12 12 6 5 5 5 4 3 3 11 12 12 12 13 13 12 12 12 13 12
5 6 6 5 4 10 9 8 10 11 11 12 12 13 13 11 10 11 12 12 12 12 12 11 13 13 12 11 11 10 11 12 12 12 10 9 8 9 9 10 10 11 12 13 10 10 12 13 14 15 15 14 13 13 13 13 12 10 11 12 10 9 8 10 11 11 7 5 5 5 4 3 3 3 10 12 12 11 12 10 11 13 12 12 11
6 6 6 4 3 8 9 8 9 11 10 11 13 13 13 12 11 10 11 12 11 12 11 11 11 12 13 13 12 11 11 11 11 11 10 9 10 10 10 11 11 11 13 12 9 8 10 11 13 15 15 13 12 12 11 11 11 10 10 10 8 7 5 9 10 7 4 4 5 5 4 6 4 5 9 11 11 11 11 10 8 9 9 11 11
7 5 5 4 4 8 8 8 9 11 11 12 12 12 13 12 12 11 11 11 11 11 11 11 11 12 12 12 12 11 11 10 10 11 10 10 11 11 11 12 13 10 12 12 9 6 8 10 12 14 14 13 11 11 10 10 10 9 8 7 7 5 3 5 7 3 3 4 4 4 7 9 4 3 9 11 12 11 10 10 10 10 11 10 10
6 5 5 2 7 8 9 8 9 10 12 12 12 13 11 11 11 11 11 10 11 10 10 10 10 11 12 11 12 11 11 11 11 11 11 11 10 10 10 12 12 12 13 12 10 7 6 11 11 13 15 14 11 10 10 9 9 8 7 5 2 6 7 7 3 2 3 3 3 4 5 6 4 7 12 11 11 11 10 9 10 10 11 10 9
7 6 4 3 4 7 7 8 10 10 11 13 12 12 11 12 10 11 10 10 9 9 10 10 10 10 11 12 12 11 11 11 11 11 12 12 12 10 10 11 11 12 13 13 11 8 4 8 12 12 14 14 12 10 9 8 8 8 7 5 5 10 11 8 3 3 3 3 3 4 4 4 4 10 10 10 9 9 9 9 10 10 9 9 9
8 7 5 5 3 10 9 8 8 10 10 10 10 10 11 11 12 11 7 8 8 8 9 10 10 10 10 11 11 11 10 11 11 12 13 13 13 12 11 12 11 12 12 12 11 9 5 5 10 12 12 13 12 10 9 8 8 8 7 7 7 8 12 7 5 3 3 3 3 3 3 2 3 10 10 10 10 9 8 9 8 9 9 8 8
8 8 5 2 4 5 12 10 8 9 9 9 10 9 10 10 12 13 9 9 8 8 9 9 10 10 10 11 11 11 11 11 11 12 13 13 13 12 13 13 11 11 11 13 11 9 6 4 7 10 10 11 11 10 9 9 8 7 7 7 7 6 9 5 4 3 3 2 3 3 3 2 7 8 10 10 9 9 8 8 8 8 8 7 7
9 6 5 4 3 4 4 10 10 9 9 9 10 10 10 11 12 14 13 11 9 9 10 10 10 10 10 10 11 11 10 10 10 11 12 12 12 14 14 13 13 12 12 14 13 10 7 4 4 9 10 10 11 10 9 9 8 6 5 5 6 4 7 7 5 3 3 3 3 3 3 3 8 8 9 10 9 9 8 8 7 6 7 7 7
8 6 6 5 5 3 5 5 8 12 10 8 9 9 9 10 11 12 12 12 10 10 11 11 10 11 10 10 10 10 10 11 12 11 11 11 13 13 13 13 13 13 13 14 13 10 8 6 3 6 9 9 10 10 9 8 7 5 5 4 5 3 9 8 6 5 5 3 3 3 3 3 5 7 9 8 8 8 7 7 7 7 6 6 6
6 6 6 5 5 4 4 4 5 5 5 8 9 9 8 9 10 11 13 12 11 10 10 10 10 10 10 10 10 9 10 11 11 11 11 11 12 12 13 13 13 13 14 14 13 11 9 6 4 4 7 8 10 10 8 7 7 6 5 5 5 5 8 9 5 5 5 4 4 3 4 5 7 8 8 8 8 8 7 7 6 6 6 6 6
6 6 5 5 5 4 4 4 4 5 5 4 4 6 10 9 10 9 12 10 8 10 10 9 10 10 10 10 10 11 10 11 11 11 11 11 11 12 12 13 13 14 14 14 13 12 10 7 5 3 5 7 9 9 7 7 7 7 6 6 6 6 10 6 5 5 4 4 3 3 4 9 7 8 9 9 7 7 6 6 6 6 6 5 5
5 5 5 3 4 4 3 4 4 4 4 4 4 4 8 9 9 9 10 12 11 9 9 10 9 9 9 9 9 8 9 9 13 10 13 11 11 8 11 12 12 13 13 13 13 11 10 9 7 4 3 6 8 8 6 6 7 7 6 6 6 8 5 3 5 4 4 5 3 4 6 11 10 10 11 10 7 7 6 6 6 5 5 5 4
4 4 4 5 3 4 3 3 3 4 4 3 3 4 5 9 7 8 9 9 7 9 9 11 9 8 8 7 7 5 3 4 6 5 11 7 8 9 11 12 12 12 13 12 12 11 10 8 7 6 4 5 7 8 5 6 8 8 7 7 7 5 5 4 3 3 3 3 4 4 9 10 11 11 11 10 10 8 6 6 6 5 4 4 4
5 4 3 4 4 3 3 3 3 3 3 4 3 2 3 5 3 4 4 6 6 10 7 3 6 4 8 7 4 4 4 3 4 7 5 7 8 10 11 12 12 13 12 12 11 10 10 9 7 5 3 3 7 4 3 4 7 8 6 6 5 4 5 5 4 4 3 3 3 5 10 10 10 11 11 10 10 10 8 6 6 5 5 4 4
5 4 4 4 4 3 3 3 3 3 3 3 3 4 4 3 4 4 4 7 5 4 3 4 2 3 4 4 4 4 4 4 4 5 4 8 9 10 10 11 12 13 13 12 11 10 10 8 6 6 3 2 2 2 3 3 4 7 5 3 3 3 4 5 5 4 4 2 3 6 10 9 10 10 10 11 10 10 9 7 6 6 6 5 3
6 6 6 3 4 4 3 3 3 3 2 2 3 3 3 3 3 3 3 3 4 3 4 5 2 3 3 4 4 3 3 3 6 10 9 4 6 9 11 11 11 12 13 9 11 10 11 10 8 5 2 0 2 2 1 2 3 2 2 2 2 3 4 4 5 5 4 3 3 7 8 9 9 10 10 10 10 9 8 8 7 6 6 5 4
5 3 4 5 4 4 3 3 3 3 3 3 3 3 2 3 2 3 3 3 3 4 4 4 3 3 4 3 3 3 3 4 5 1 3 3 3 1 3 4 3 4 8 4 5 6 6 3 3 2 1 1 1 1 1 0 3 2 2 2 2 2 4 4 4 4 4 3 4 7 9 8 10 10 10 10 10 9 9 8 7 6 5 5 4
3 5 5 4 4 4 4 3 3 3 3 2 3 3 3 3 3 2 3 3 3 3 3 4 5 4 4 3 1 3 3 5 4 4 2 3 4 5 4 4 3 2 4 4 4 4 4 3 3 3 2 1 1 1 0 0 1 2 2 1 2 2 4 5 5 5 4 4 4 9 9 8 9 10 10 10 10 10 9 8 7 7 5 5 5
5 4 3 3 3 3 3 3 3 3 3 3 3 3 3 2 3 2 4 3 2 3 2 2 4 4 4 5 5 3 4 3 5 4 4 3 4 5 5 4 4 4 3 3 4 5 4 4 3 3 2 2 2 1 0 0 0 1 2 2 2 2 4 5 5 5 5 4 5 10 9 9 9 10 10 10 10 10 9 8 8 8 6 5 5
5 4 4 4 4 4 4 4 4 3 3 3 3 3 2 3 3 3 4 4 4 3 3 3 3 4 4 4 3 4 4 4 3 5 5 4 4 5 5 5 4 4 3 2 4 4 5 4 3 3 3 3 2 2 1 1 1 0 1 2 2 3 4 5 5 5 5 5 4 7 10 9 9 10 11 10 10 10 10 9 8 8 8 5 6
7 4 4 5 4 3 4 5 4 4 4 4 4 4 3 3 2 2 1 4 3 4 3 3 4 4 4 5 5 4 3 4 4 4 4 6 5 4 5 5 4 4 4 3 3 4 4 4 4 4 3 3 2 3 2 2 2 1 2 1 3 3 3 4 5 5 5 5 5 6 10 9 9 10 11 11 10 11 10 10 9 9 9 8 7
7 6 6 4 3 3 6 6 5 6 5 4 4 4 4 4 4 4 2 3 2 3 3 4 3 4 4 3 4 5 5 5 4 3 5 5 5 5 5 5 5 4 5 5 4 3 4 4 4 3 3 3 3 4 2 2 2 2 3 2 3 4 5 5 6 6 6 5 5 5 10 9 8 9 9 10 11 11 11 11 10 9 9 9 8
6 7 5 4 3 5 4 4 5 4 4 5 4 4 3 3 3 3 3 3 3 4 4 4 4 4 4 3 4 4 4 4 4 4 3 4 4 4 4 4 5 5 5 5 4 4 4 5 5 5 4 3 4 3 2 3 3 3 3 3 4 3 4 5 5 6 6 6 6 6 7 11 10 10 9 9 10 11 11 10 10 10 10 10 9
8 7 6 4 5 6 6 4 4 4 5 4 4 4 3 3 3 3 4 4 3 3 4 4 4 4 3 3 3 4 4 3 4 4 4 4 5 4 4 4 5 4 5 5 5 5 5 4 5 4 4 3 4 4 3 4 5 5 4 5 3 5 5 5 5 5 6 5 5 6 6 7 11 11 10 10 10 10 11 11 11 10 10 10 10
4 8 7 5 7 6 7 4 5 4 6 5 5 3 3 3 4 3 3 2 2 2 2 3 3 2 2 3 4 4 3 4 4 4 4 3 1 3 4 4 4 4 4 5 6 4 4 3 3 3 4 3 2 3 3 4 5 6 4 6 4 4 5 5 5 5 5 5 5 5 5 5 5 10 12 11 11 10 11 12 12 12 12 10 10
7 5 5 7 5 4 5 5 5 6 5 4 4 4 3 2 1 2 2 2 2 2 1 1 1 2 2 2 3 4 3 3 4 3 3 4 2 4 5 5 4 3 3 3 3 4 5 5 3 3 3 4 3 3 3 4 5 5 5 5 3 5 5 5 5 6 6 6 5 5 5 5 5 5 6 10 12 11 11 11 12 13 13 12 11
7 5 8 7 6 6 5 5 5 6 5 4 4 4 3 3 3 1 1 2 2 1 1 1 2 0 1 2 2 1 2 2 2 3 3 3 5 6 5 4 3 2 2 3 3 2 2 4 4 3 2 2 2 3 3 5 4 5 6 5 6 5 4 6 5 5 6 6 5 5 5 5 5 5 5 6 8 12 12 11 12 13 14 12 12
11 9 8 7 7 5 6 7 6 7 6 5 4 4 4 3 2 3 2 2 3 2 2 1 1 1 2 0 0 1 2 1 1 2 3 3 4 5 3 0 2 2 2 0 1 3 2 2 3 4 4 3 3 4 4 4 4 6 6 5 6 5 5 5 6 6 6 5 5 5 5 5 5 5 5 5 5 7 12 12 11 11 13 12 12
10 10 10 7 7 6 6 8 8 8 6 5 4 4 3 4 4 4 3 3 4 3 2 2 3 3 2 1 0 1 2 1 1 0 1 2 3 2 1 2 0 3 0 1 2 2 3 3 3 3 3 4 3 3 2 1 3 5 5 5 6 6 5 6 6 7 4 5 6 5 5 5 5 6 5 5 5 5 9 13 12 11 13 11 12
9 11 11 12 10 7 6 7 6 7 7 7 5 5 4 4 5 4 3 4 3 3 3 3 3 3 2 2 2 2 2 1 2 1 1 2 2 0 4 5 4 5 2 3 1 1 2 2 4 2 2 2 3 4 2 1 2 4 4 6 7 6 6 6 6 5 6 6 6 6 7 6 5 6 6 5 6 6 5 8 12 11 13 12 12
8 9 8 7 8 6 5 5 6 5 5 5 5 6 6 6 5 5 5 4 3 4 2 5 3 3 4 2 3 3 2 2 2 2 2 2 2 7 6 2 1 2 0 1 1 1 2 2 2 3 2 2 3 3 2 1 3 2 3 6 6 7 7 6 5 6 6 7 7 7 5 6 6 6 6 6 6 5 6 5 5 5 8 14 13
7 7 8 8 8 6 5 4 5 5 4 4 5 6 6 6 6 5 6 4 3 3 3 3 3 4 2 3 3 3 3 3 3 3 2 3 4 3 4 1 1 1 1 1 1 2 2 0 1 3 4 2 1 3 2 4 4 4 2 3 4 4 5 6 5 6 6 5 6 5 6 6 6 6 6 6 6 6 6 5 5 6 6 9 14
6 8 9 8 9 9 7 7 5 4 6 6 4 5 5 4 3 4 5 1 3 2 3 2 3 2 2 2 3 3 3 3 3 3 3 3 3 2 2 2 1 0 0 1 1 3 2 3 3 2 1 2 1 1 1 1 3 5 3 1 3 3 4 3 5 5 5 6 5 5 6 5 6 6 6 6 6 6 6 6 6 6 6 5 8
6 8 10 10 8 8 8 7 5 5 5 5 4 4 4 6 6 5 3 2 3 3 1 1 1 2 2 3 2 2 3 3 3 3 3 3 3 3 2 0 1 1 1 1 1 0 1 2 1 2 1 2 2 4 4 3 1 1 3 5 3 3 2 4 4 5 5 5 5 5 5 6 7 7 6 6 6 6 6 6 6 6 6 6 6
11 10 9 9 8 8 6 6 6 7 5 4 4 4 2 2 3 4 6 2 0 0 2 0 1 2 2 2 2 3 4 4 3 3 4 3 4 4 3 4 3 2 2 3 2 3 3 2 3 2 1 1 1 0 3 3 2 1 2 2 4 3 3 1 2 4 6 6 4 5 6 6 8 7 7 6 6 6 6 6 6 6 6 7 7
8 8 8 10 8 7 6 6 7 6 5 4 4 3 3 3 5 5 3 3 3 2 3 3 2 2 2 2 1 2 3 3 4 4 4 3 4 4 3 4 4 4 5 5 6 6 5 2 1 2 1 2 0 1 4 1 2 4 0 3 1 2 5 4 3 5 5 6 6 6 5 6 7 6 4 6 7 7 7 7 8 8 8 8 7
10 11 11 11 9 11 9 8 8 7 6 5 4 5 6 5 6 4 4 4 4 4 3 1 1 0 1 1 0 1 3 3 3 4 4 4 3 3 4 3 4 4 5 6 6 5 5 4 2 1 1 0 1 0 2 2 4 5 3 1 1 2 4 3 3 5 1 3 6 7 6 7 6 6 7 7 7 7 7 7 8 7 8 8 8
11 12 12 12 11 9 9 7 6 6 6 5 5 6 7 8 7 6 4 3 3 2 3 5 2 2 3 0 1 1 1 2 2 3 3 4 4 4 4 4 4 5 5 5 4 5 7 7 5 3 3 3 2 2 2 1 3 3 5 3 3 1 3 4 2 4 5 3 3 3 6 7 6 6 6 6 7 7 6 7 7 8 8 8 8
12 6 6 9 10 10 9 8 8 7 6 5 6 6 6 7 9 9 8 8 7 4 2 1 4 2 0 1 1 0 1 1 2 2 4 4 4 4 4 4 4 4 3 5 6 5 5 4 4 6 5 4 4 4 4 3 2 1 2 3 5 5 4 1 2 3 4 5 2 3 4 3 4 5 7 7 7 7 6 7 8 8 8 8 8
8 8 8 8 10 10 9 9 7 7 6 6 7 8 9 7 7 6 7 7 7 7 4 3 1 0 2 1 0 0 2 2 2 3 3 3 4 4 4 4 5 4 5 6 5 4 5 4 4 4 5 6 5 5 4 5 5 4 3 3 2 2 4 5 6 4 4 5 7 3 1 2 3 4 6 7 6 6 6 7 7 7 7 8 8
10 13 13 10 9 8 8 6 7 7 6 7 8 7 9 9 9 7 6 5 5 4 3 2 3 1 3 1 0 0 1 1 1 1 1 3 3 4 4 4 5 4 5 5 4 5 6 5 6 6 6 5 4 3 3 3 4 4 5 4 4 3 2 3 4 5 4 3 8 5 7 3 2 3 4 4 4 4 5 6 7 7 6 7 7
9 7 7 8 8 8 9 9 8 7 7 9 8 8 8 8 8 7 8 6 4 3 4 4 4 2 4 2 0 0 1 1 2 1 3 2 4 4 4 5 4 4 5 5 4 5 5 5 4 4 4 5 4 4 4 3 2 2 2 3 4 5 4 1 2 1 4 6 7 7 6 6 8 4 4 4 3 3 4 5 5 6 6 6 6
5 7 8 8 8 9 9 10 10 8 8 10 9 9 7 8 9 8 8 8 5 6 5 4 3 2 4 4 2 2 0 0 1 1 2 2 3 3 4 4 4 4 4 5 4 4 4 4 3 4 5 5 4 4 4 4 3 3 4 3 3 4 4 4 6 6 5 4 5 6 5 6 8 10 8 4 4 5 4 3 4 5 6 6 6
Wind_Direction
193 185 187 175 163 159 155 150 145 140 132 129 125 123 118 117 116 117 118 115 113 110 108 107 106 104 102 103 102 105 107 107 109 109 108 109 110 110 112 112 112 112 114 114 112 111 111 111 112 114 115 115 114 113 112 112 111 110 110 110 105 100 98 100 98 97 99 101 102 99 94 92 93 91 89 89 89 88 87 84 79 77 74 79 80
168 176 179 170 161 156 154 150 146 141 137 133 130 126 122 121 120 122 119 116 112 112 110 109 107 105 106 107 107 105 106 105 107 109 111 113 113 113 113 114 113 115 115 112 110 108 109 110 113 115 116 115 115 114 114 112 111 110 106 104 102 102 100 101 101 99 99 103 102 99 99 103 104 101 97 95 93 90 87 85 85 80 80 83 79
131 159 171 167 158 155 153 151 147 143 140 137 133 130 127 126 124 124 123 118 115 114 115 113 111 110 110 110 111 111 109 108 107 108 112 115 115 115 116 116 117 117 116 114 111 110 110 111 112 114 116 116 116 115 114 112 112 109 105 105 105 103 98 97 95 94 100 104 103 101 99 95 93 100 102 99 96 94 93 92 90 89 88 82 77
143 156 158 164 160 154 152 151 151 149 147 142 138 135 131 130 127 125 123 118 115 115 116 114 115 114 109 106 104 108 111 111 109 109 112 115 119 120 121 120 119 118 117 115 113 113 112 112 113 115 117 117 117 116 116 113 113 109 106 107 107 100 96 94 92 89 85 81 79 75 65 83 102 100 98 98 97 97 95 91 88 86 84 82 82
146 150 148 148 157 152 151 151 154 155 151 148 144 141 136 133 130 128 125 120 118 118 115 110 110 113 116 115 113 108 108 110 115 114 116 119 121 122 122 121 119 118 118 118 116 114 114 114 114 115 118 118 117 118 117 116 113 108 105 108 108 101 96 94 92 91 89 86 80 73 77 77 95 103 102 100 96 94 92 89 87 86 84 83 81
144 142 136 137 153 153 147 156 158 159 155 151 148 143 140 136 135 132 129 122 119 119 120 116 111 109 111 115 117 113 110 112 116 120 119 121 122 124 123 121 120 120 120 121 118 116 116 115 115 116 116 118 119 119 116 113 111 107 106 106 105 103 100 98 98 97 95 90 81 72 78 84 99 104 104 100 98 96 98 97 92 88 84 82 78
132 125 132 130 141 142 145 156 161 161 153 149 149 146 142 142 141 139 134 125 120 119 119 116 114 114 113 114 114 115 113 115 109 109 117 117 120 123 122 121 119 119 121 123 121 119 117 116 116 117 117 119 120 120 115 111 103 102 105 101 98 99 101 99 99 98 93 80 78 68 60 69 74 103 111 106 104 102 98 97 96 93 91 88 87
110 123 129 131 139 149 142 153 161 159 154 150 152 150 146 145 145 143 137 129 126 124 123 122 119 119 117 114 111 113 115 118 120 120 107 108 110 112 114 119 120 120 118 120 124 121 117 117 116 117 118 121 121 117 113 104 92 84 94 79 66 82 96 101 101 99 97 91 82 79 73 77 84 84 105 105 103 100 94 91 87 84 84 81 77
106 123 127 129 140 144 138 142 152 158 154 155 153 152 148 144 143 139 137 135 130 128 128 129 127 124 120 117 117 117 120 118 118 114 110 99 93 102 107 102 104 111 114 118 127 126 118 117 116 117 118 118 115 108 105 98 91 82 81 80 65 55 97 109 110 105 99 107 96 83 82 74 57 86 113 109 105 102 98 92 94 93 88 85 85
112 118 123 105 117 132 132 129 139 150 150 154 156 152 151 146 139 136 136 137 133 131 129 130 129 126 126 129 128 128 126 122 116 115 111 110 106 106 103 105 103 106 112 120 130 131 120 113 113 114 113 112 103 95 90 89 85 76 73 77 71 49 40 122 117 107 101 105 106 102 95 84 65 85 110 104 103 102 104 101 100 98 96 91 90
118 111 115 94 119 128 121 122 131 139 144 152 153 153 151 144 145 141 136 139 135 133 131 133 131 130 131 132 132 130 124 119 118 116 111 110 115 115 109 108 114 112 117 125 132 135 125 116 110 107 104 98 93 93 89 82 80 78 73 66 67 60 44 129 116 97 101 106 110 117 113 94 84 78 118 116 113 111 106 102 100 99 98 96 95
117 105 101 113 132 121 117 118 124 131 140 145 152 152 144 145 143 143 141 140 137 134 131 129 132 134 133 137 137 134 132 129 124 119 114 113 114 113 111 111 112 113 124 130 133 145 137 121 109 107 108 105 101 96 92 88 81 73 67 63 36 106 125 132 95 89 92 97 101 97 95 102 107 121 116 115 110 111 115 112 105 102 99 100 99
117 114 96 98 110 107 105 114 125 129 137 146 143 143 146 147 143 147 142 140 136 132 132 133 137 134 138 141 140 138 135 130 126 125 123 121 118 113 110 109 115 121 126 132 139 139 132 118 114 109 112 109 105 100 96 91 86 78 60 32 20 96 116 109 78 73 70 76 87 94 96 108 119 123 119 115 120 119 111 111 111 105 102 103 103
119 117 120 129 133 113 94 100 114 127 134 141 134 136 140 146 141 146 127 137 133 135 137 140 139 135 139 141 140 140 134 132 133 134 131 124 124 121 114 112 115 121 129 134 135 130 135 123 113 111 112 112 108 105 101 94 89 82 67 45 43 76 107 99 82 61 64 64 72 88 97 104 119 118 121 125 125 120 112 105 105 105 103 105 108
123 129 133 100 89 107 108 95 101 110 116 121 128 136 140 143 135 141 152 146 142 149 148 145 142 143 145 144 142 143 140 136 135 138 132 128 129 124 123 120 123 124 122 126 130 132 136 134 118 109 106 109 108 107 103 95 90 82 69 54 44 78 106 109 92 75 65 71 73 82 90 112 115 122 120 117 118 115 111 109 100 103 99 95 96
128 125 103 90 82 81 98 113 106 107 117 124 132 137 139 137 138 149 155 155 156 159 157 150 147 149 151 147 144 144 141 137 134 134 135 134 131 131 127 128 126 125 124 127 134 143 152 140 120 115 114 112 113 111 106 98 88 81 75 64 50 54 126 123 119 102 83 77 77 89 95 96 119 132 124 121 122 117 120 114 106 104 104 97 95
133 113 100 96 91 83 86 95 120 122 118 118 131 134 135 134 138 145 155 160 166 164 159 152 150 153 152 146 142 142 138 139 137 140 138 136 136 130 130 130 130 129 131 133 140 151 152 154 170 137 125 118 118 113 109 103 97 87 66 54 55 61 156 134 130 128 125 119 111 96 98 105 123 118 122 122 120 115 121 123 114 109 106 104 98
119 115 111 108 106 102 89 81 88 98 113 120 122 132 133 137 139 143 154 163 173 165 154 150 152 152 150 145 140 137 138 141 145 142 142 139 138 137 136 137 137 134 134 137 142 151 153 160 183 167 132 125 119 116 110 106 98 80 61 45 47 76 164 136 137 137 137 141 133 139 131 133 125 134 125 119 126 138 121 109 113 105 98 102 103
122 118 118 117 111 103 100 103 107 96 98 96 109 132 140 142 146 146 155 149 158 168 153 151 153 152 150 145 139 140 140 141 146 145 140 144 145 142 141 141 140 139 138 141 145 152 156 161 184 185 133 125 118 112 110 102 93 80 60 47 44 95 145 132 128 137 141 130 147 141 156 142 136 129 128 128 133 120 110 109 107 110 106 99 102
121 122 117 111 119 115 117 118 112 110 106 103 110 122 143 151 154 155 152 156 169 160 154 154 152 151 149 142 139 144 145 149 152 148 150 149 148 146 145 142 142 142 141 141 147 155 161 165 174 187 140 131 120 113 112 100 90 78 65 53 55 107 120 118 135 140 139 147 148 162 164 147 147 144 135 127 126 118 121 130 115 106 103 89 85
122 127 130 135 134 135 133 116 115 113 108 103 107 112 142 151 156 157 154 159 159 163 163 158 152 151 138 128 130 124 128 141 142 147 154 151 151 153 148 145 144 145 143 143 148 158 165 172 171 181 191 154 130 121 109 91 81 79 69 55 56 101 124 119 117 123 143 153 154 182 168 158 155 149 144 141 139 136 130 128 124 108 96 100 94
142 142 151 147 143 153 149 129 113 112 122 119 117 114 109 114 116 142 156 157 175 173 178 149 157 136 137 139 132 127 119 121 144 157 145 157 158 159 150 147 146 146 144 145 152 160 167 172 176 180 210 193 132 104 97 79 83 84 75 59 54 102 126 131 130 144 151 168 164 196 172 169 161 152 149 146 145 140 142 148 133 119 110 102 102
148 156 170 166 163 156 153 142 143 145 131 123 112 127 112 120 115 137 160 175 181 157 114 144 111 128 128 132 126 122 133 149 145 151 157 164 159 159 154 151 149 148 146 149 155 161 166 167 171 181 194 231 75 85 104 103 81 85 75 58 61 98 128 133 143 148 159 176 173 201 174 174 166 158 152 151 149 146 151 156 134 128 119 109 113
164 175 170 156 158 166 171 164 165 149 137 115 106 100 127 134 132 128 143 130 133 143 142 136 175 156 154 127 125 131 136 117 165 161 167 151 165 160 160 153 153 148 149 150 156 161 163 167 175 189 176 50 88 79 43 93 97 98 89 91 96 115 135 140 148 155 156 183 181 209 180 182 172 165 158 156 153 152 153 151 145 139 132 133 124
176 146 143 167 171 175 168 170 158 159 146 151 139 121 110 108 104 122 114 104 111 113 143 150 154 164 122 127 131 135 136 137 130 259 121 157 146 122 157 145 154 153 149 133 146 159 153 151 165 172 70 6 342 106 95 39 99 104 110 129 137 139 145 144 150 158 169 186 185 207 187 189 179 170 166 164 160 156 152 146 147 145 138 135 128
126 143 172 162 169 169 169 171 163 175 159 136 134 165 129 123 125 138 104 82 97 101 114 126 144 146 123 105 55 128 137 132 140 153 158 164 156 157 173 142 165 154 140 140 137 134 139 153 168 177 189 240 266 294 123 188 138 122 126 136 158 157 157 157 159 166 181 190 199 203 194 190 183 178 173 169 169 161 157 157 159 154 157 158 151
158 161 149 151 140 138 157 151 154 153 136 122 122 106 123 135 132 135 123 109 108 123 119 123 143 145 148 147 153 169 132 131 141 149 159 201 169 166 162 163 166 160 145 149 155 154 151 157 171 181 185 219 250 291 16 346 255 148 153 143 188 175 168 170 168 176 187 194 206 206 193 192 187 184 180 175 174 169 167 165 166 155 164 175 164
123 140 133 133 131 139 143 137 143 140 137 122 118 111 114 117 153 150 131 153 138 143 144 149 140 156 146 147 172 145 152 158 158 156 166 182 195 178 171 167 170 171 145 168 164 165 158 159 170 172 195 218 236 252 255 289 258 144 235 150 188 195 182 183 180 182 187 201 209 210 196 198 194 189 184 182 179 179 173 173 169 163 162 178 171
127 131 131 114 127 134 131 138 139 135 133 129 117 116 114 97 80 71 158 148 136 149 138 124 131 138 152 162 164 147 156 169 174 171 164 181 190 191 174 170 173 179 154 176 187 174 169 166 170 184 207 224 237 263 240 238 232 207 217 131 206 195 194 195 190 181 192 198 203 220 203 202 197 193 188 187 187 185 180 179 176 174 173 183 184
137 133 121 121 119 113 139 150 149 144 138 122 125 122 128 127 128 153 228 122 150 139 125 123 133 139 149 159 161 160 165 182 180 169 173 180 177 184 174 171 181 184 167 176 194 180 173 174 168 181 205 217 233 252 262 268 251 230 218 166 208 216 197 192 189 190 193 191 203 221 211 201 198 194 189 194 195 193 190 189 183 179 177 183 187
129 121 120 133 130 111 113 138 140 136 129 124 131 129 130 136 145 134 126 150 162 139 127 135 146 148 152 143 142 158 164 185 177 170 178 176 183 187 180 168 181 193 179 178 170 181 181 177 180 178 199 209 228 238 235 259 269 257 224 222 183 210 240 205 193 188 186 197 198 205 213 201 197 194 194 197 202 203 200 199 192 186 181 182 185
133 139 141 148 113 110 110 118 128 130 124 125 125 134 140 149 140 122 135 149 143 132 143 151 156 157 150 141 142 150 170 187 184 173 175 182 188 188 181 179 186 189 186 182 174 172 180 194 180 180 186 197 218 216 217 229 252 255 245 242 198 185 214 219 200 191 195 199 201 206 206 204 198 196 197 200 203 208 208 207 202 197 186 188 187
152 143 150 126 116 122 113 115 120 120 128 133 136 136 137 147 157 159 153 143 115 107 142 175 162 152 138 143 145 156 167 174 191 190 181 180 218 191 193 206 200 184 182 188 175 156 146 159 178 161 168 179 208 223 218 217 237 243 239 243 201 213 201 201 204 194 198 200 206 207 212 210 204 201 200 202 203 205 207 213 206 199 197 197 199
148 145 128 119 128 112 118 121 121 125 127 127 130 135 140 135 142 158 142 123 135 142 152 77 113 125 136 152 158 161 162 176 183 191 178 148 214 240 213 213 208 184 195 184 178 171 161 155 173 160 177 173 205 220 192 221 235 241 235 236 197 217 192 200 199 200 196 199 203 206 208 212 209 208 210 208 206 206 208 211 210 205 204 208 200
135 146 137 146 127 127 124 116 130 129 129 139 141 137 138 140 137 162 129 139 102 85 42 59 66 109 116 126 158 148 147 161 190 183 168 156 185 224 227 213 195 179 182 196 192 213 179 157 151 184 202 216 215 215 200 218 225 226 230 224 222 195 192 200 202 203 199 204 191 210 209 208 211 214 213 213 215 211 211 211 213 206 209 212 206
150 150 137 134 126 132 128 128 135 138 147 147 146 141 144 140 115 106 105 97 100 107 112 77 62 55 44 17 87 142 112 150 196 190 170 180 193 209 222 120 98 122 161 338 275 234 238 192 190 178 204 236 243 238 195 215 224 228 226 217 228 201 194 191 202 208 209 186 202 207 208 209 209 215 214 212 217 221 214 212 216 209 207 213 209
151 146 143 137 136 145 135 135 145 145 144 134 130 127 104 86 88 102 117 107 117 125 97 92 77 68 46 42 32 177 124 180 182 168 200 210 205 213 78 71 336 191 97 131 197 242 216 210 228 215 201 246 262 284 311 284 244 234 225 220 220 218 201 191 197 207 185 196 206 206 203 212 213 214 217 213 216 222 223 217 215 216 207 208 207
156 148 150 149 150 151 148 145 146 145 146 148 143 120 95 82 74 77 86 77 69 110 126 102 82 72 58 48 59 69 127 143 192 164 282 273 292 311 70 47 23 42 135 226 158 152 229 234 238 212 179 216 242 251 271 318 268 236 229 228 224 213 217 201 197 193 189 206 206 206 207 207 208 215 211 214 216 216 222 225 220 217 209 206 204
155 151 142 135 132 143 145 145 142 145 136 124 115 98 92 82 67 68 69 62 60 69 78 84 68 75 66 54 60 67 82 80 96 138 198 239 331 59 34 348 107 212 214 101 27 156 189 257 281 260 166 210 257 249 260 323 303 272 223 227 226 214 218 216 190 180 202 208 205 209 195 207 207 215 216 212 214 214 214 216 217 215 213 209 207
152 147 141 139 139 140 141 140 152 140 119 110 105 95 87 93 97 76 64 55 54 78 55 71 71 86 73 67 74 83 84 74 66 63 67 69 72 123 161 172 113 312 19 63 317 266 216 214 351 351 351 326 239 276 347 335 321 322 246 239 224 233 231 221 208 200 200 207 218 199 202 204 204 215 217 219 213 214 213 209 207 211 210 216 212
156 151 145 151 152 153 151 163 173 145 137 130 120 127 117 93 67 85 122 115 112 85 63 29 68 81 83 85 92 93 89 77 56 66 60 70 70 85 138 249 59 175 94 173 225 296 349 65 34 55 19 285 291 15 28 6 345 330 345 305 272 242 237 221 231 227 211 208 195 203 213 196 208 210 216 214 216 216 214 209 209 206 209 211 219
179 162 157 162 156 147 162 165 161 158 155 155 147 134 165 165 152 166 146 142 104 106 76 345 41 59 90 99 100 93 81 83 91 83 66 72 72 71 77 269 113 111 247 100 101 332 29 38 40 289 139 313 303 47 25 355 324 216 352 339 316 302 240 214 227 238 232 220 197 197 206 212 209 211 211 209 218 218 218 214 209 207 208 208 213
164 167 166 153 151 155 166 163 169 165 172 164 140 160 190 160 127 159 140 137 294 233 148 91 41 81 53 37 51 71 72 51 57 81 87 79 86 76 52 62 64 81 56 28 71 85 127 181 170 222 277 203 339 269 46 45 316 48 86 8 306 301 311 313 280 245 230 227 202 204 200 209 220 212 207 207 213 217 219 214 211 208 208 209 208
165 169 167 162 158 161 167 171 175 175 170 183 167 166 140 100 69 97 91 115 153 121 78 53 44 73 75 9 356 73 83 74 78 86 83 77 91 94 79 60 52 51 61 53 37 44 67 97 158 223 169 333 8 21 118 112 45 33 258 226 303 357 298 281 275 270 221 221 207 220 210 213 212 214 201 213 215 211 217 212 214 212 211 209 207
179 177 173 169 166 172 175 178 177 179 178 182 151 131 108 83 86 67 68 65 45 44 63 39 8 343 81 43 15 35 95 102 89 90 100 103 92 95 82 63 57 49 66 59 48 43 52 64 78 64 180 181 333 31 63 167 183 185 163 81 290 239 240 269 339 281 224 211 223 222 219 224 216 202 202 220 218 214 213 214 216 215 216 212 209
191 189 177 167 166 167 171 179 179 177 176 174 152 147 147 140 133 126 125 108 121 122 175 193 217 181 191 243 310 348 45 96 86 104 108 101 78 87 90 79 56 46 59 73 67 48 38 41 34 66 33 360 337 360 36 137 213 217 192 195 154 216 328 323 325 283 328 241 259 233 221 224 224 218 211 216 214 218 209 218 212 218 215 213 212
198 168 171 172 171 168 172 178 178 180 173 165 164 151 148 157 163 165 162 165 165 224 240 230 176 224 65 190 242 359 358 69 47 61 84 88 92 79 85 85 80 70 56 54 50 49 47 45 32 44 35 31 33 35 10 347 327 234 234 217 231 215 230 323 306 326 329 322 347 278 278 256 235 229 232 224 215 214 215 214 218 216 214 212 211
165 164 175 180 175 169 172 180 182 177 174 161 169 167 159 170 160 158 162 158 171 189 202 207 179 164 127 207 310 356 3 30 63 59 69 101 100 83 80 78 74 63 65 61 63 56 62 46 47 46 39 41 44 44 20 16 8 342 342 312 251 223 227 217 215 227 285 310 302 319 305 311 293 254 239 241 230 214 211 214 220 218 215 212 208
171 177 184 177 173 172 171 171 184 177 172 169 169 182 167 170 165 158 162 180 170 174 169 146 152 148 137 80 55 359 17 7 26 74 67 100 97 104 87 77 73 63 68 63 59 59 60 55 42 39 40 36 33 32 47 23 15 0 345 355 333 305 277 234 237 214 227 270 285 277 292 320 325 276 269 272 268 243 226 216 213 220 219 220 212
182 172 162 162 174 171 173 175 186 184 175 174 177 181 178 162 158 168 165 173 154 128 141 151 167 157 163 195 152 65 14 46 44 70 110 87 98 95 87 88 91 84 75 74 62 53 50 56 56 58 52 54 32 37 36 12 26 7 13 339 2 350 333 284 190 218 233 219 252 277 297 313 305 297 336 319 294 267 253 235 220 215 215 210 215
157 168 173 171 171 178 180 181 189 184 178 176 180 183 182 172 169 170 167 167 168 151 143 161 157 152 181 205 186 210 310 233 12 30 72 93 98 91 98 92 84 84 83 79 72 75 70 70 63 58 52 53 43 46 38 31 19 19 14 14 357 344 334 321 318 307 279 269 246 242 258 260 262 287 278 284 313 292 273 258 241 229 217 211 206